059  
NZUS99 KSGF 250907  
HRRSGF  
 
HOURLY WEATHER  
NATIONAL WEATHER SERVICE SPRINGFIELD MO  
400 AM CDT MON SEP 25 2017  
   
.....SGF CWA...
 
 
 
CITY SKY/WX TMP DP RH WIND PRES REMARKS  
SPRINGFIELD CLEAR 68 65 90 S9 29.97S  
JOPLIN CLEAR 69 66 90 SE8 29.95S  
WEST PLAINS CLEAR 63 61 93 CALM 30.02R  
ROLLA CLEAR 66 62 87 S8 30.00R  
OSAGE BEACH CLEAR 67 64 90 SE3 29.98S  
BRANSON CLEAR 64 64 100 CALM 30.00S  
   
.....SURROUNDING SGF CWA...
 
 
 
CITY SKY/WX TMP DP RH WIND PRES REMARKS  
CHANUTE CLEAR 69 65 86 SE7 29.93S  
PARSONS MOCLDY 71 65 81 SE5 29.94S  
COFFEYVILLE PTCLDY 72 66 81 SE7 29.92S  
EMPORIA CLEAR 69 64 84 S8 29.91S  
GROVE OK CLEAR 68 63 83 CALM 29.96R  
ROGERS AR CLEAR 69 66 90 SE7 29.98F  
SILOAM SPRINGS CLEAR 68 62 81 E5 29.97S  
HARRISON AR CLEAR 63 63 100 CALM 30.00S  
NEAR YELLVILLE CLEAR 66 64 93 CALM 29.98F  
   
.....KANSAS AND MISSOURI...
 
 
 
CITY SKY/WX TMP DP RH WIND PRES REMARKS  
KANSAS CTY INT PTCLDY 68 65 90 S9 29.92F  
DOWNTOWN KC PTCLDY 75 65 70 S7 29.92S  
COLUMBIA CLEAR 69 65 86 SE7 29.97S  
SEDALIA CLEAR 70 67 90 S7 29.97S  
ST JOSEPH PTCLDY 71 66 84 SE3 29.92S  
ST LOUIS CLEAR 72 64 76 CALM 29.98S  
SPIRIT OF STL CLEAR 67 66 97 CALM 29.96S  
KIRKSVILLE CLEAR 64 61 90 CALM 29.97R  
WICHITA CLOUDY 71 66 84 SE9 29.89S  
TOPEKA CLEAR 70 68 93 E5 29.91S  
OLATHE PTCLDY 68 65 90 S3 29.94S  
   
.....TENNESSEE...
 
 
 
CITY SKY/WX TMP DP RH WIND PRES REMARKS  
MEMPHIS CLEAR 69 67 93 CALM 29.97S  
NASHVILLE MOCLDY 69 66 90 CALM 30.01S  
   
.....ARKANSAS....
 
 
 
CITY SKY/WX TMP DP RH WIND PRES REMARKS  
FAYETTEVILLE CLEAR 60 60 100 CALM 29.97F  
FT SMITH CLEAR 70 67 90 NE3 29.93F  
LITTLE ROCK CLEAR 68 68 100 CALM 29.96R  
   
.....OKLAHOMA....
 
 
 
CITY SKY/WX TMP DP RH WIND PRES REMARKS  
TULSA PTCLDY 74 66 76 SE8 29.90S  
PONCA CITY CLOUDY 76 64 66 SE12 29.89S  
MCALESTER CLEAR 71 65 81 CALM 29.93S  
OKLAHOMA CITY MOCLDY 70 64 81 S8 29.90S  
   
.....IOWA.........
 
 
 
CITY SKY/WX TMP DP RH WIND PRES REMARKS  
DES MOINES PTCLDY 71 63 75 SE7 29.91F  
QUAD CITIES CLEAR 66 60 81 CALM 29.96R  
   
.....ILLINOIS.....
 
 
 
CITY SKY/WX TMP DP RH WIND PRES REMARKS  
QUINCY CLEAR 68 63 84 S5 29.97R  
CHICAGO PTCLDY 69 57 65 S5 29.99S  
 
CLICK HERE TO GO TO PREVIOUS BULLETINS.

The Nexlab MO Page
The Nexlab KS Page Main Text Page